Time,TemperatureF,DewpointF,PressureIn,WindDirection,WindDirectionDegrees,WindSpeedMPH,WindSpeedGustMPH,Humidity,HourlyPrecipIn,Conditions,Clouds,dailyrainin,SoftwareType,DateUTC
2013-01-28 00:02:00,57.0,53.0,29.89,South,169,1.0,9.0,86,0.00,,,0.12,,2013-01-28 06:02:00,
2013-01-28 00:11:00,57.0,53.0,29.89,South,169,1.0,9.0,86,0.00,,,0.12,,2013-01-28 06:11:00,
2013-01-28 00:22:00,57.0,53.0,29.89,SSW,208,2.0,9.0,86,0.00,,,0.12,,2013-01-28 06:22:00,
2013-01-28 00:32:00,57.0,53.0,29.89,South,187,2.0,12.0,86,0.00,,,0.12,,2013-01-28 06:32:00,
2013-01-28 00:42:00,57.0,53.0,29.89,South,187,2.0,12.0,86,0.00,,,0.12,,2013-01-28 06:42:00,
2013-01-28 00:52:00,57.0,53.0,29.89,South,182,3.0,11.0,86,0.00,,,0.12,,2013-01-28 06:52:00,
2013-01-28 01:02:00,57.0,53.0,29.89,SSW,208,0.0,6.0,86,0.00,,,0.12,,2013-01-28 07:02:00,
2013-01-28 01:11:00,57.0,53.0,29.89,SSW,208,0.0,6.0,86,0.00,,,0.12,,2013-01-28 07:11:00,
2013-01-28 01:21:00,57.0,53.0,29.89,SSW,211,1.0,6.0,86,0.00,,,0.08,,2013-01-28 07:21:00,
2013-01-28 01:32:00,57.0,53.0,29.89,SSW,206,0.0,5.0,87,0.00,,,0.08,,2013-01-28 07:32:00,
2013-01-28 01:41:00,57.0,53.0,29.89,SSW,206,0.0,5.0,87,0.00,,,0.08,,2013-01-28 07:41:00,
2013-01-28 01:51:00,57.0,53.0,29.89,SSW,211,0.0,5.0,87,0.00,,,0.08,,2013-01-28 07:51:00,
2013-01-28 02:01:00,57.0,53.0,29.89,South,178,0.0,5.0,87,0.00,,,0.08,,2013-01-28 08:01:00,
2013-01-28 02:11:00,57.0,53.0,29.89,South,178,0.0,5.0,87,0.00,,,0.08,,2013-01-28 08:11:00,
2013-01-28 02:21:00,56.0,52.0,29.89,SSW,193,0.0,5.0,87,0.00,,,0.03,,2013-01-28 08:21:00,
2013-01-28 02:32:00,56.0,52.0,29.89,SSW,196,0.0,4.0,88,0.00,,,0.03,,2013-01-28 08:32:00,
2013-01-28 02:42:00,56.0,52.0,29.89,SSW,196,0.0,4.0,88,0.00,,,0.03,,2013-01-28 08:42:00,
2013-01-28 02:52:00,56.0,52.0,29.88,South,170,0.0,4.0,88,0.00,,,0.03,,2013-01-28 08:52:00,
2013-01-28 03:02:00,56.0,52.0,29.89,SW,214,0.0,5.0,88,0.00,,,0.03,,2013-01-28 09:02:00,
2013-01-28 03:11:00,56.0,52.0,29.89,SW,214,0.0,5.0,88,0.00,,,0.03,,2013-01-28 09:11:00,
2013-01-28 03:21:00,56.0,52.0,29.89,SW,214,0.0,1.0,88,0.00,,,0.01,,2013-01-28 09:21:00,
2013-01-28 03:32:00,56.0,52.0,29.89,SSW,211,0.0,7.0,88,0.00,,,0.01,,2013-01-28 09:32:00,
2013-01-28 03:42:00,56.0,52.0,29.89,SSW,211,0.0,7.0,88,0.00,,,0.01,,2013-01-28 09:42:00,
2013-01-28 03:51:00,57.0,53.0,29.89,SW,221,2.0,9.0,88,0.00,,,0.01,,2013-01-28 09:51:00,
2013-01-28 04:02:00,57.0,53.0,29.88,South,190,0.0,5.0,88,0.00,,,0.01,,2013-01-28 10:02:00,
2013-01-28 04:11:00,57.0,53.0,29.88,South,190,0.0,5.0,88,0.00,,,0.01,,2013-01-28 10:11:00,
2013-01-28 04:21:00,57.0,53.0,29.88,SSW,208,0.0,5.0,88,0.00,,,0.01,,2013-01-28 10:21:00,
2013-01-28 04:32:00,56.0,52.0,29.89,SW,225,0.0,5.0,88,0.00,,,0.01,,2013-01-28 10:32:00,
2013-01-28 04:41:00,56.0,52.0,29.89,SW,225,0.0,5.0,88,0.00,,,0.01,,2013-01-28 10:41:00,
2013-01-28 04:51:00,56.0,52.0,29.89,SW,225,0.0,1.0,88,0.00,,,0.01,,2013-01-28 10:51:00,
2013-01-28 05:02:00,56.0,52.0,29.88,SW,230,0.0,3.0,88,0.00,,,0.01,,2013-01-28 11:02:00,
2013-01-28 05:11:00,56.0,52.0,29.88,SW,230,0.0,3.0,88,0.00,,,0.01,,2013-01-28 11:11:00,
2013-01-28 05:22:00,56.0,52.0,29.88,SW,230,0.0,4.0,88,0.00,,,0.01,,2013-01-28 11:22:00,
2013-01-28 05:32:00,56.0,53.0,29.88,SW,230,0.0,4.0,89,0.00,,,0.01,,2013-01-28 11:32:00,
2013-01-28 05:42:00,56.0,53.0,29.88,SW,230,0.0,4.0,89,0.00,,,0.01,,2013-01-28 11:42:00,
2013-01-28 05:52:00,56.0,53.0,29.88,SW,230,0.0,0.0,89,0.00,,,0.01,,2013-01-28 11:52:00,
2013-01-28 06:03:00,56.0,53.0,29.88,SW,230,0.0,3.0,89,0.00,,,0.01,,2013-01-28 12:03:00,
2013-01-28 06:12:00,56.0,53.0,29.88,SW,230,0.0,3.0,89,0.00,,,0.01,,2013-01-28 12:12:00,
2013-01-28 06:23:00,56.0,53.0,29.88,SW,229,0.0,4.0,89,0.00,,,0.01,,2013-01-28 12:23:00,
2013-01-28 06:33:00,56.0,53.0,29.88,SW,227,0.0,4.0,89,0.00,,,0.01,,2013-01-28 12:33:00,
2013-01-28 06:42:00,56.0,53.0,29.88,SW,227,0.0,4.0,89,0.00,,,0.01,,2013-01-28 12:42:00,
2013-01-28 06:52:00,56.0,53.0,29.88,SW,226,0.0,2.0,89,0.00,,,0.01,,2013-01-28 12:52:00,
2013-01-28 07:03:00,55.0,52.0,29.89,SW,227,0.0,2.0,89,0.00,,,0.01,,2013-01-28 13:03:00,
2013-01-28 07:12:00,55.0,52.0,29.89,SW,227,0.0,2.0,89,0.00,,,0.01,,2013-01-28 13:12:00,
2013-01-28 07:23:00,55.0,52.0,29.89,SW,227,0.0,2.0,90,0.00,,,0.00,,2013-01-28 13:23:00,
2013-01-28 07:33:00,56.0,53.0,29.90,SW,227,0.0,1.0,90,0.00,,,0.00,,2013-01-28 13:33:00,
2013-01-28 07:42:00,56.0,53.0,29.90,SW,227,0.0,1.0,90,0.00,,,0.00,,2013-01-28 13:42:00,
2013-01-28 07:52:00,56.0,53.0,29.90,SW,221,2.0,7.0,90,0.00,,,0.00,,2013-01-28 13:52:00,
2013-01-28 08:03:00,56.0,53.0,29.90,WSW,247,0.0,5.0,90,0.00,,,0.00,,2013-01-28 14:03:00,
2013-01-28 08:12:00,56.0,53.0,29.90,WSW,247,0.0,5.0,90,0.00,,,0.00,,2013-01-28 14:12:00,
2013-01-28 08:22:00,56.0,53.0,29.91,SW,221,1.0,5.0,90,0.00,,,0.00,,2013-01-28 14:22:00,
2013-01-28 08:33:00,57.0,54.0,29.91,WSW,242,0.0,6.0,89,0.00,,,0.00,,2013-01-28 14:33:00,
2013-01-28 08:43:00,57.0,54.0,29.91,WSW,242,0.0,6.0,89,0.00,,,0.00,,2013-01-28 14:43:00,
2013-01-28 08:52:00,57.0,54.0,29.91,WSW,252,0.0,1.0,90,0.00,,,0.00,,2013-01-28 14:52:00,
2013-01-28 09:03:00,57.0,54.0,29.91,WSW,252,0.0,4.0,90,0.00,,,0.00,,2013-01-28 15:03:00,
2013-01-28 09:12:00,57.0,54.0,29.91,WSW,252,0.0,4.0,90,0.00,,,0.00,,2013-01-28 15:12:00,
2013-01-28 09:23:00,57.0,54.0,29.91,SW,229,1.0,6.0,89,0.00,,,0.00,,2013-01-28 15:23:00,
2013-01-28 09:33:00,57.0,54.0,29.91,SW,229,0.0,1.0,89,0.00,,,0.00,,2013-01-28 15:33:00,
2013-01-28 09:43:00,57.0,54.0,29.91,SW,229,0.0,1.0,89,0.00,,,0.00,,2013-01-28 15:43:00,
2013-01-28 09:52:00,57.0,53.0,29.90,SW,229,0.0,1.0,88,0.00,,,0.00,,2013-01-28 15:52:00,
2013-01-28 10:04:00,58.0,54.0,29.89,SW,220,0.0,5.0,87,0.00,,,0.00,,2013-01-28 16:04:00,
2013-01-28 10:12:00,58.0,54.0,29.89,SW,220,0.0,5.0,87,0.00,,,0.00,,2013-01-28 16:12:00,
2013-01-28 10:22:00,59.0,54.0,29.90,West,259,0.0,4.0,85,0.00,,,0.00,,2013-01-28 16:22:00,
2013-01-28 10:32:00,59.0,54.0,29.89,SE,141,3.0,8.0,83,0.00,,,0.00,,2013-01-28 16:32:00,
2013-01-28 10:42:00,59.0,54.0,29.89,SE,141,3.0,8.0,83,0.00,,,0.00,,2013-01-28 16:42:00,
2013-01-28 10:52:00,60.0,54.0,29.89,South,188,0.0,4.0,82,0.00,,,0.00,,2013-01-28 16:52:00,
2013-01-28 11:02:00,61.0,54.0,29.89,SW,223,1.0,8.0,79,0.00,,,0.00,,2013-01-28 17:02:00,
2013-01-28 11:12:00,61.0,54.0,29.89,SW,223,1.0,8.0,79,0.00,,,0.00,,2013-01-28 17:12:00,
2013-01-28 11:23:00,63.0,56.0,29.88,South,179,2.0,10.0,77,0.00,,,0.00,,2013-01-28 17:23:00,
2013-01-28 11:32:00,64.0,56.0,29.88,WSW,254,3.0,10.0,75,0.00,,,0.00,,2013-01-28 17:32:00,
2013-01-28 11:42:00,64.0,56.0,29.88,WSW,254,3.0,10.0,75,0.00,,,0.00,,2013-01-28 17:42:00,
2013-01-28 11:53:00,66.0,55.0,29.87,SW,223,2.0,10.0,68,0.00,,,0.00,,2013-01-28 17:53:00,
2013-01-28 12:02:00,67.0,55.0,29.86,WSW,238,3.0,12.0,66,0.00,,,0.00,,2013-01-28 18:02:00,
2013-01-28 12:12:00,67.0,55.0,29.86,WSW,238,3.0,12.0,66,0.00,,,0.00,,2013-01-28 18:12:00,
2013-01-28 12:23:00,68.0,55.0,29.85,SSW,205,3.0,16.0,64,0.00,,,0.00,,2013-01-28 18:23:00,
2013-01-28 12:33:00,68.0,55.0,29.85,SSW,205,3.0,16.0,64,0.00,,,0.00,,2013-01-28 18:33:00,
2013-01-28 12:42:00,68.0,55.0,29.85,SSW,205,3.0,16.0,64,0.00,,,0.00,,2013-01-28 18:42:00,
2013-01-28 12:52:00,70.0,55.0,29.83,WNW,298,2.0,13.0,59,0.00,,,0.00,,2013-01-28 18:52:00,
2013-01-28 13:02:00,70.0,55.0,29.82,SSE,150,3.0,12.0,58,0.00,,,0.00,,2013-01-28 19:02:00,
2013-01-28 13:12:00,70.0,55.0,29.82,SSE,150,3.0,12.0,58,0.00,,,0.00,,2013-01-28 19:12:00,
2013-01-28 13:22:00,70.0,55.0,29.81,South,180,3.0,15.0,58,0.00,,,0.00,,2013-01-28 19:22:00,
2013-01-28 13:32:00,71.0,55.0,29.80,South,176,5.0,15.0,57,0.00,,,0.00,,2013-01-28 19:32:00,
2013-01-28 13:42:00,71.0,55.0,29.80,South,176,5.0,15.0,57,0.00,,,0.00,,2013-01-28 19:42:00,
2013-01-28 13:52:00,71.0,54.0,29.80,SE,134,5.0,15.0,56,0.00,,,0.00,,2013-01-28 19:52:00,
2013-01-28 14:02:00,71.0,55.0,29.79,South,180,5.0,16.0,58,0.00,,,0.00,,2013-01-28 20:02:00,
2013-01-28 14:12:00,71.0,55.0,29.79,South,180,5.0,16.0,58,0.00,,,0.00,,2013-01-28 20:12:00,
2013-01-28 14:22:00,71.0,56.0,29.78,SW,227,4.0,18.0,59,0.00,,,0.00,,2013-01-28 20:22:00,
2013-01-28 14:33:00,71.0,56.0,29.78,SE,133,5.0,14.0,59,0.00,,,0.00,,2013-01-28 20:33:00,
2013-01-28 14:42:00,71.0,56.0,29.78,SE,133,5.0,14.0,59,0.00,,,0.00,,2013-01-28 20:42:00,
2013-01-28 14:53:00,72.0,56.0,29.77,South,177,6.0,16.0,58,0.00,,,0.00,,2013-01-28 20:53:00,
2013-01-28 15:03:00,72.0,57.0,29.77,SSW,209,4.0,17.0,59,0.00,,,0.00,,2013-01-28 21:03:00,
2013-01-28 15:12:00,72.0,57.0,29.77,SSW,209,4.0,17.0,59,0.00,,,0.00,,2013-01-28 21:12:00,
2013-01-28 15:22:00,71.0,56.0,29.77,SE,145,3.0,21.0,60,0.00,,,0.00,,2013-01-28 21:22:00,
2013-01-28 15:33:00,71.0,57.0,29.77,South,184,2.0,13.0,61,0.00,,,0.00,,2013-01-28 21:33:00,
2013-01-28 15:43:00,71.0,57.0,29.77,South,184,2.0,13.0,61,0.00,,,0.00,,2013-01-28 21:43:00,
2013-01-28 15:53:00,71.0,57.0,29.76,South,183,6.0,14.0,62,0.00,,,0.00,,2013-01-28 21:53:00,
2013-01-28 16:02:00,71.0,57.0,29.76,South,181,6.0,17.0,62,0.00,,,0.00,,2013-01-28 22:02:00,
2013-01-28 16:11:00,71.0,57.0,29.76,South,181,6.0,17.0,62,0.00,,,0.00,,2013-01-28 22:11:00,
2013-01-28 16:23:00,70.0,56.0,29.75,SSE,164,2.0,10.0,62,0.00,,,0.00,,2013-01-28 22:23:00,
2013-01-28 16:32:00,70.0,56.0,29.75,SSE,164,2.0,10.0,62,0.00,,,0.00,,2013-01-28 22:32:00,
2013-01-28 16:42:00,70.0,56.0,29.75,SSE,164,2.0,10.0,62,0.00,,,0.00,,2013-01-28 22:42:00,
2013-01-28 16:52:00,70.0,58.0,29.75,SSE,148,3.0,18.0,65,0.00,,,0.00,,2013-01-28 22:52:00,
2013-01-28 17:02:00,69.0,57.0,29.74,South,188,5.0,13.0,66,0.00,,,0.00,,2013-01-28 23:02:00,
2013-01-28 17:12:00,69.0,57.0,29.74,South,188,5.0,13.0,66,0.00,,,0.00,,2013-01-28 23:12:00,
2013-01-28 17:22:00,69.0,58.0,29.74,South,173,3.0,16.0,67,0.00,,,0.00,,2013-01-28 23:22:00,
2013-01-28 17:32:00,68.0,57.0,29.73,SSE,158,2.0,13.0,68,0.00,,,0.00,,2013-01-28 23:32:00,
2013-01-28 17:42:00,68.0,57.0,29.73,SSE,158,2.0,13.0,68,0.00,,,0.00,,2013-01-28 23:42:00,
2013-01-28 17:53:00,68.0,58.0,29.72,South,185,4.0,15.0,70,0.00,,,0.00,,2013-01-28 23:53:00,
2013-01-28 18:02:00,67.0,57.0,29.72,ESE,119,4.0,12.0,71,0.00,,,0.00,,2013-01-29 00:02:00,
2013-01-28 18:12:00,67.0,57.0,29.72,ESE,119,4.0,12.0,71,0.00,,,0.00,,2013-01-29 00:12:00,
2013-01-28 18:22:00,67.0,57.0,29.72,SSE,168,3.0,17.0,71,0.00,,,0.00,,2013-01-29 00:22:00,
2013-01-28 18:32:00,67.0,57.0,29.72,SE,138,4.0,12.0,71,0.00,,,0.00,,2013-01-29 00:32:00,
2013-01-28 18:42:00,67.0,57.0,29.72,SE,138,4.0,12.0,71,0.00,,,0.00,,2013-01-29 00:42:00,
2013-01-28 18:52:00,66.0,57.0,29.72,SSE,153,4.0,14.0,72,0.00,,,0.00,,2013-01-29 00:52:00,
2013-01-28 19:02:00,66.0,57.0,29.72,SSE,155,5.0,14.0,73,0.00,,,0.00,,2013-01-29 01:02:00,
2013-01-28 19:12:00,66.0,57.0,29.72,SSE,155,5.0,14.0,73,0.00,,,0.00,,2013-01-29 01:12:00,
2013-01-28 19:22:00,66.0,57.0,29.72,South,169,5.0,15.0,72,0.00,,,0.00,,2013-01-29 01:22:00,
2013-01-28 19:32:00,66.0,57.0,29.72,ESE,116,5.0,18.0,73,0.00,,,0.00,,2013-01-29 01:32:00,
2013-01-28 19:42:00,66.0,57.0,29.72,ESE,116,5.0,18.0,73,0.00,,,0.00,,2013-01-29 01:42:00,
2013-01-28 19:52:00,65.0,56.0,29.72,SSE,148,4.0,13.0,74,0.00,,,0.00,,2013-01-29 01:52:00,
2013-01-28 20:02:00,65.0,57.0,29.72,SSW,193,3.0,13.0,75,0.00,,,0.00,,2013-01-29 02:02:00,
2013-01-28 20:12:00,65.0,57.0,29.72,SSW,193,3.0,13.0,75,0.00,,,0.00,,2013-01-29 02:12:00,
2013-01-28 20:22:00,65.0,57.0,29.73,SSE,148,5.0,16.0,76,0.00,,,0.00,,2013-01-29 02:22:00,
2013-01-28 20:32:00,65.0,58.0,29.73,SSW,209,4.0,12.0,77,0.00,,,0.00,,2013-01-29 02:32:00,
2013-01-28 20:42:00,65.0,58.0,29.73,SSW,209,4.0,12.0,77,0.00,,,0.00,,2013-01-29 02:42:00,
2013-01-28 20:53:00,65.0,58.0,29.73,SSE,157,2.0,17.0,77,0.00,,,0.00,,2013-01-29 02:53:00,
2013-01-28 21:03:00,64.0,57.0,29.73,SE,137,5.0,16.0,78,0.00,,,0.00,,2013-01-29 03:03:00,
2013-01-28 21:11:00,64.0,57.0,29.73,SE,137,5.0,16.0,78,0.00,,,0.00,,2013-01-29 03:11:00,
2013-01-28 21:22:00,64.0,57.0,29.73,SSW,209,6.0,16.0,79,0.00,,,0.00,,2013-01-29 03:22:00,
2013-01-28 21:32:00,64.0,57.0,29.73,SE,130,4.0,14.0,78,0.00,,,0.00,,2013-01-29 03:32:00,
2013-01-28 21:42:00,64.0,57.0,29.73,SE,130,4.0,14.0,78,0.00,,,0.00,,2013-01-29 03:42:00,
2013-01-28 21:53:00,64.0,57.0,29.73,South,189,5.0,23.0,79,0.00,,,0.00,,2013-01-29 03:53:00,
2013-01-28 22:02:00,64.0,57.0,29.73,South,189,5.0,23.0,79,0.00,,,0.00,,2013-01-29 04:02:00,
2013-01-28 22:11:00,64.0,57.0,29.73,South,189,5.0,23.0,79,0.00,,,0.00,,2013-01-29 04:11:00,
2013-01-28 22:21:00,65.0,59.0,29.72,South,188,7.0,17.0,80,0.00,,,0.00,,2013-01-29 04:21:00,
2013-01-28 22:32:00,64.0,58.0,29.71,SE,138,3.0,13.0,80,0.00,,,0.00,,2013-01-29 04:32:00,
2013-01-28 22:42:00,64.0,58.0,29.71,SE,138,3.0,13.0,80,0.00,,,0.00,,2013-01-29 04:42:00,
2013-01-28 22:52:00,65.0,59.0,29.71,WSW,256,6.0,14.0,80,0.00,,,0.00,,2013-01-29 04:52:00,
2013-01-28 23:03:00,65.0,59.0,29.71,SSE,161,5.0,16.0,81,0.00,,,0.00,,2013-01-29 05:03:00,
2013-01-28 23:12:00,65.0,59.0,29.71,SSE,161,5.0,16.0,81,0.00,,,0.00,,2013-01-29 05:12:00,
2013-01-28 23:21:00,65.0,59.0,29.71,SSW,202,3.0,13.0,81,0.00,,,0.00,,2013-01-29 05:21:00,
2013-01-28 23:32:00,65.0,59.0,29.71,SSW,205,4.0,14.0,81,0.00,,,0.00,,2013-01-29 05:32:00,
2013-01-28 23:42:00,65.0,59.0,29.71,SSW,205,4.0,14.0,81,0.00,,,0.00,,2013-01-29 05:42:00,
2013-01-28 23:52:00,65.0,59.0,29.70,SSW,205,5.0,15.0,81,0.00,,,0.00,,2013-01-29 05:52:00,